This is the latest recevied weather packets stored in our database for station/object IQ3VO-10. If no packets are shown the sender has not sent any weather packets the latest 10 day(s).
| Time | Temp. | Humidity | Pressure | Rain* | Wind** | Luminosity | Snow |
|---|---|---|---|---|---|---|---|
| 1777835364 | 23.89° C | 38% | 1017.9 hPa | - | - | - | - |
| 1777834464 | 23.89° C | 37% | 1017.7 hPa | - | - | - | - |
| 1777833563 | 23.89° C | 37% | 1017.7 hPa | - | - | - | - |
| 1777832662 | 23.89° C | 37% | 1017.5 hPa | - | - | - | - |
| 1777831760 | 23.89° C | 37% | 1017.4 hPa | - | - | - | - |
| 1777830859 | 23.89° C | 37% | 1017.3 hPa | - | - | - | - |
| 1777829958 | 23.89° C | 37% | 1017.2 hPa | - | - | - | - |
| 1777829057 | 23.89° C | 37% | 1017.3 hPa | - | - | - | - |
| 1777828157 | 23.89° C | 37% | 1017.4 hPa | - | - | - | - |
| 1777827256 | 23.89° C | 40% | 1017.5 hPa | - | - | - | - |
| 1777826355 | 23.89° C | 38% | 1017.5 hPa | - | - | - | - |
| 1777825454 | 23.89° C | 38% | 1017.6 hPa | - | - | - | - |
| 1777824553 | 23.89° C | 37% | 1017.5 hPa | - | - | - | - |
| 1777823652 | 23.89° C | 39% | 1017.7 hPa | - | - | - | - |
| 1777822751 | 23.89° C | 39% | 1017.9 hPa | - | - | - | - |
| 1777821850 | 23.89° C | 39% | 1018.1 hPa | - | - | - | - |
| 1777820950 | 23.33° C | 38% | 1018.2 hPa | - | - | - | - |
| 1777820049 | 23.33° C | 39% | 1018.3 hPa | - | - | - | - |
| 1777819148 | 23.33° C | 39% | 1018.5 hPa | - | - | - | - |
| 1777818247 | 23.33° C | 39% | 1018.6 hPa | - | - | - | - |
| 1777817346 | 23.33° C | 40% | 1018.8 hPa | - | - | - | - |
| 1777816445 | 23.33° C | 40% | 1019 hPa | - | - | - | - |
| 1777815544 | 23.33° C | 39% | 1019 hPa | - | - | - | - |
| 1777814644 | 23.33° C | 39% | 1019 hPa | - | - | - | - |
| 1777813743 | 23.33° C | 40% | 1019.1 hPa | - | - | - | - |
* Rain since midnight (hover to see other rain measurements)
** Current wind speed in m/s (hover to see current wind gust speed)